Flag for India Past Weather in New Okhla Industrial Development Authority, Uttar Pradesh, India — Yesterday and Last 2 Weeks

Now
91 °F

Thunderstorms. Partly cloudy.


Feels Like: 114 °F
Forecast: 96 / 112 °F
Wind: 8 mph from Southeast

Location: New Delhi Palam Airport

Current Time: Jul 1, 2016 at 12:54:38 AM

Latest Report: Jul 1, 2016 at 12:30 AM


Visibility: 2 mi

Pressure: 29.47 "Hg

Humidity: 75%

Dew Point: 82 °F

Location of New Okhla Industrial Development AuthorityLocation

Past Weather in New Okhla Industrial Development Authority — Graph

°F

New Okhla Industrial Development Authority Temperature Yesterday

Maximum temperature yesterday: 104 °F (at 2:00 PM)
Minimum temperature yesterday: 90 °F (at 3:30 AM)
Average temperature yesterday: 96 °F

High & Low Weather Summary for the Past Weeks

 TemperatureHumidityPressure
High104 °F (Jun 17, 1:30 PM)94% (Jun 28, 9:30 AM)29.68 "Hg (Jun 28, 9:30 AM)
Low79 °F (Jun 28, 2:00 AM)33% (Jun 17, 1:30 PM)29.45 "Hg (Jun 16, 1:00 AM)
Average92 °F59%29.57 "Hg
* Reported Jun 15 11:30 PM — Jun 30 11:30 PM, New Okhla Industrial Development Authority, Weather by CustomWeather, © 2016

Note: Actual official high and low records may vary slightly from our data, if they occured in-between our weather recording intervals... More about our weather records

Advertising

New Okhla Industrial Development Authority Weather History for the Previous 24 Hours

Scroll right to see more
 ConditionsComfort  
Time TempWeatherWind HumidityBarometerVisibility
11:30 PM
Thu, Jun 30
93 °FPartly cloudy.9 mph63%29.50 "Hg2 mi
11:00 PM93 °FPartly cloudy.9 mph63%29.50 "Hg2 mi
10:30 PM95 °FPartly cloudy.8 mph60%29.50 "Hg2 mi
10:00 PM95 °FPartly cloudy.8 mph60%29.50 "Hg2 mi
9:30 PM95 °FPartly cloudy.6 mph60%29.50 "Hg2 mi
9:00 PM95 °FPartly cloudy.8 mph60%29.47 "Hg2 mi
8:30 PM95 °FPartly cloudy.7 mph60%29.47 "Hg2 mi
8:00 PM97 °FPartly cloudy.8 mph53%29.47 "Hg2 mi
7:30 PM99 °FThunderstorms. Broken clouds.9 mph50%29.45 "Hg2 mi
7:00 PM100 °FThunderstorms. Broken clouds.9 mph47%29.45 "Hg2 mi
6:30 PM104 °FBroken clouds.5 mph40%29.45 "Hg2 mi
6:00 PM104 °FBroken clouds.5 mph40%29.45 "Hg2 mi
5:30 PM104 °FBroken clouds.6 mph40%29.45 "Hg2 mi
4:30 PM104 °FBroken clouds.5 mph40%29.45 "Hg2 mi
4:00 PM104 °FBroken clouds.5 mph40%29.45 "Hg2 mi
3:30 PM104 °FBroken clouds.3 mph40%29.47 "Hg2 mi
3:00 PM104 °FBroken clouds.5 mph40%29.50 "Hg2 mi
2:30 PM104 °FScattered clouds.5 mph40%29.50 "Hg2 mi
2:00 PM104 °FScattered clouds.5 mph40%29.50 "Hg2 mi
1:30 PM102 °FScattered clouds.5 mph42%29.53 "Hg2 mi
1:00 PM102 °FScattered clouds.6 mph42%29.53 "Hg2 mi
12:30 PM100 °FScattered clouds.6 mph45%29.56 "Hg2 mi
12:00 PM100 °FScattered clouds.7 mph45%29.56 "Hg2 mi
11:30 AM99 °FHaze.7 mph47%29.56 "Hg2 mi
11:00 AM99 °FHaze.5 mph47%29.56 "Hg2 mi
10:30 AM99 °FHaze.7 mph47%29.56 "Hg2 mi
10:00 AM97 °FHaze.5 mph50%29.59 "Hg2 mi
9:30 AM97 °FHaze.5 mph50%29.59 "Hg2 mi
9:00 AM95 °FHaze.7 mph53%29.59 "Hg2 mi
8:30 AM93 °FHaze.7 mph56%29.59 "Hg2 mi
8:00 AM91 °FHaze.6 mph63%29.59 "Hg2 mi
7:30 AM91 °FHaze.6 mph67%29.59 "Hg2 mi
7:00 AM90 °FHaze.6 mph67%29.56 "Hg2 mi
6:30 AM90 °FHaze.6 mph71%29.56 "Hg2 mi
6:00 AM90 °FHaze.5 mph67%29.56 "Hg2 mi
5:30 AM90 °FHaze.5 mph63%29.56 "Hg2 mi
5:00 AM90 °FHaze.5 mph67%29.56 "Hg2 mi
4:30 AM90 °FHaze.3 mph67%29.56 "Hg2 mi
4:00 AM90 °FHaze.5 mph67%29.56 "Hg2 mi
3:30 AM90 °FHaze.5 mph67%29.56 "Hg2 mi
3:00 AM91 °FHaze.6 mph63%29.56 "Hg2 mi
2:30 AM91 °FHaze.6 mph63%29.56 "Hg2 mi
2:00 AM93 °FHaze.6 mph59%29.56 "Hg2 mi
1:30 AM93 °FHaze.6 mph59%29.56 "Hg2 mi
1:00 AM93 °FHaze.6 mph63%29.56 "Hg2 mi
12:30 AM93 °FHaze.5 mph63%29.59 "Hg2 mi
12:00 AM95 °FHaze.5 mph56%29.59 "Hg2 mi
Weather by CustomWeather, © 2016

See weather overviewHow to use our weather pages